User: anonymous   Login
Location: Bieujac
(44.5398°N, 0.1549°W)
Time: 23:04:05
(UTC+00:00)
Language:

IRS-1C Rocket - Orbit

View from above orbital plane
View from above orbital plane
View from above satellite
View from above satellite

Ground track
Ground track

The orbit data is extracted from the following two-line orbital elements,

1 23753U 95072C   20027.14777254 -.00000043  00000-0  17047-5 0  9993
2 23753  98.9797  37.4934 0004061  30.5540 329.5875 14.26590635253458
Epoch (UTC): 27 January 2020 03:32:47
Eccentricity: 0.0004061
inclination: 98.9797°
perigee height: 800 km
apogee height: 806 km
right ascension of ascending node: 37.4934°
argument of perigee: 30.5540°
revolutions per day: 14.26590635
mean anomaly at epoch: 329.5875°
orbit number at epoch: 25345

The dashed part of the orbit path shows where the satellite is in the earth's shadow,  

DLR